Volver al catálogo

SHEFFER YU.P.

ActivoNavegaciónSSO
NORAD 57208·PAYLOAD·🇷🇺 Russia
Este nombre de satélite aún no ha sido confirmado por fuentes oficiales.

Lanzado Jun 27, 2023 desde Vostochny Cosmodrome

Loading…

Próximos Pases (próximas 24 horas)

TLE

ActualizadoSource: Space-Track

Época: Sep 14, 2026, 12:48 UTC

1 57208U 23091AU  26257.53400989  .00017810  00000-0  41946-3 0  9991
2 57208  97.5006 330.8659 0007087 104.8404 255.3628 15.41975763178542

Sigue SHEFFER YU.P. en tiempo real con AllMySat

Download on the App Store